| time (UTC) | temp F | wind direction | speed knots | gust knots | rain 1hr in | rain 24hr in | rain mn in | humidity % | barometer mb |
| 20260506155012 | 59 | 246 | 2.6 | 3.5 | 0.00 | 0.00 | 0.00 | 81 | 1020.1 |
| 20260506154532 | 59 | 240 | 0.9 | 3.5 | 0.00 | 0.00 | 0.00 | 82 | 1020.2 |
| 20260506154013 | 59 | 267 | 1.7 | 3.5 | 0.00 | 0.00 | 0.00 | 82 | 1020.2 |
| 20260506153511 | 58 | 277 | 1.7 | 5.2 | 0.00 | 0.00 | 0.00 | 82 | 1020.1 |
| 20260506153028 | 58 | 252 | 2.6 | 5.2 | 0.00 | 0.00 | 0.00 | 82 | 1020.2 |
| 20260506152512 | 58 | 210 | 2.6 | 4.3 | 0.00 | 0.00 | 0.00 | 82 | 1020.1 |
| 20260506152013 | 58 | 226 | 2.6 | 4.3 | 0.00 | 0.00 | 0.00 | 83 | 1020.1 |
| 20260506151530 | 58 | 180 | 1.7 | 4.3 | 0.00 | 0.00 | 0.00 | 83 | 1020.1 |
| 20260506151015 | 58 | 215 | 1.7 | 4.3 | 0.00 | 0.00 | 0.00 | 83 | 1020.1 |
| 20260506150512 | 58 | 219 | 1.7 | 4.3 | 0.00 | 0.00 | 0.00 | 84 | 1020.1 |
| 20260506150029 | 58 | 202 | 1.7 | 4.3 | 0.00 | 0.00 | 0.00 | 84 | 1020.1 |
| 20260506145510 | 58 | 217 | 1.7 | 3.5 | 0.00 | 0.00 | 0.00 | 85 | 1020.0 |
| 20260506145013 | 57 | 214 | 0.9 | 2.6 | 0.00 | 0.00 | 0.00 | 85 | 1020.0 |
| 20260506144529 | 57 | 190 | 0.9 | 2.6 | 0.00 | 0.00 | 0.00 | 85 | 1020.1 |
| 20260506144012 | 57 | 180 | 0.9 | 2.6 | 0.00 | 0.00 | 0.00 | 85 | 1020.1 |
| 20260506143513 | 57 | 188 | 0.9 | 2.6 | 0.00 | 0.00 | 0.00 | 85 | 1020.0 |
| 20260506143030 | 57 | 178 | 1.7 | 2.6 | 0.00 | 0.00 | 0.00 | 86 | 1019.9 |
| 20260506142513 | 56 | 0 | 0.0 | 2.6 | 0.00 | 0.00 | 0.00 | 86 | 1019.9 |
| 20260506142010 | 56 | 184 | 1.7 | 2.6 | 0.00 | 0.00 | 0.00 | 86 | 1019.9 |
| 20260506141534 | 56 | 0 | 0.0 | 3.5 | 0.00 | 0.00 | 0.00 | 87 | 1019.8 |
| 20260506141012 | 56 | 0 | 0.0 | 3.5 | 0.00 | 0.00 | 0.00 | 87 | 1019.8 |
| 20260506140513 | 56 | 171 | 0.0 | 2.6 | 0.00 | 0.00 | 0.00 | 87 | 1019.8 |
| 20260506140028 | 56 | 0 | 0.0 | 0.0 | 0.00 | 0.00 | 0.00 | 87 | 1019.7 |
| 20260506135512 | 56 | 0 | 0.0 | 0.0 | 0.00 | 0.00 | 0.00 | 87 | 1019.6 |
| 20260506135017 | 56 | 0 | 0.0 | 0.0 | 0.00 | 0.00 | 0.00 | 87 | 1019.6 |
| 20260506134527 | 56 | 0 | 0.0 | 0.9 | 0.00 | 0.00 | 0.00 | 87 | 1019.5 |
| 20260506134012 | 56 | 0 | 0.0 | 0.9 | 0.00 | 0.00 | 0.00 | 87 | 1019.6 |
| 20260506133512 | 56 | 0 | 0.0 | 0.9 | 0.00 | 0.00 | 0.00 | 87 | 1019.5 |
| 20260506133030 | 56 | 0 | 0.0 | 0.0 | 0.00 | 0.00 | 0.00 | 87 | 1019.5 |
| 20260506132514 | 56 | 0 | 0.0 | 0.0 | 0.00 | 0.00 | 0.00 | 87 | 1019.6 |
| 20260506132013 | 56 | 0 | 0.0 | 0.0 | 0.00 | 0.00 | 0.00 | 86 | 1019.5 |
| 20260506131528 | 56 | 0 | 0.0 | 0.0 | 0.00 | 0.00 | 0.00 | 86 | 1019.4 |
| 20260506131013 | 56 | 0 | 0.0 | 0.9 | 0.00 | 0.00 | 0.00 | 86 | 1019.5 |
| 20260506130514 | 56 | 0 | 0.0 | 0.9 | 0.00 | 0.00 | 0.00 | 86 | 1019.5 |
| 20260506130028 | 56 | 0 | 0.0 | 0.9 | 0.00 | 0.00 | 0.00 | 86 | 1019.4 |
| 20260506125513 | 56 | 0 | 0.0 | 1.7 | 0.00 | 0.00 | 0.00 | 86 | 1019.3 |
| 20260506125012 | 56 | 0 | 0.0 | 2.6 | 0.00 | 0.00 | 0.00 | 86 | 1019.3 |
| 20260506124529 | 56 | 191 | 0.0 | 3.5 | 0.00 | 0.00 | 0.00 | 86 | 1019.3 |
| 20260506124013 | 56 | 191 | 0.9 | 3.5 | 0.00 | 0.00 | 0.00 | 86 | 1019.3 |
| 20260506123515 | 56 | 191 | 0.9 | 2.6 | 0.00 | 0.00 | 0.00 | 86 | 1019.2 |
| 20260506123029 | 56 | 0 | 0.0 | 0.0 | 0.00 | 0.00 | 0.00 | 86 | 1019.2 |
| 20260506122513 | 56 | 0 | 0.0 | 0.0 | 0.00 | 0.00 | 0.00 | 85 | 1019.2 |
| 20260506122018 | 56 | 0 | 0.0 | 0.9 | 0.00 | 0.00 | 0.00 | 85 | 1019.2 |
| 20260506121529 | 56 | 0 | 0.0 | 0.9 | 0.00 | 0.00 | 0.00 | 85 | 1019.2 |
| 20260506121014 | 56 | 0 | 0.0 | 0.9 | 0.00 | 0.00 | 0.00 | 85 | 1019.1 |
| 20260506120511 | 56 | 0 | 0.0 | 0.9 | 0.00 | 0.00 | 0.00 | 85 | 1019.1 |
| 20260506120031 | 56 | 0 | 0.0 | 0.0 | 0.00 | 0.00 | 0.00 | 85 | 1019.1 |
| 20260506115516 | 56 | 0 | 0.0 | 2.6 | 0.00 | 0.00 | 0.00 | 85 | 1019.1 |
| 20260506115016 | 56 | 0 | 0.0 | 3.5 | 0.00 | 0.00 | 0.00 | 85 | 1019.1 |
| 20260506114528 | 56 | 161 | 0.0 | 3.5 | 0.00 | 0.00 | 0.00 | 85 | 1019.0 |
| 20260506114013 | 56 | 0 | 0.0 | 2.6 | 0.00 | 0.00 | 0.00 | 85 | 1019.0 |
| 20260506113513 | 56 | 0 | 0.0 | 2.6 | 0.00 | 0.00 | 0.00 | 85 | 1018.9 |
| 20260506113030 | 56 | 0 | 0.0 | 0.0 | 0.00 | 0.00 | 0.00 | 85 | 1018.9 |
| 20260506112513 | 56 | 0 | 0.0 | 0.0 | 0.00 | 0.00 | 0.00 | 85 | 1019.0 |
| 20260506112010 | 56 | 0 | 0.0 | 0.9 | 0.00 | 0.00 | 0.00 | 85 | 1018.9 |
| 20260506111527 | 56 | 0 | 0.0 | 3.5 | 0.00 | 0.00 | 0.00 | 85 | 1018.9 |
| 20260506111012 | 56 | 0 | 0.0 | 4.3 | 0.00 | 0.00 | 0.00 | 85 | 1018.7 |
| 20260506110512 | 56 | 188 | 1.7 | 4.3 | 0.00 | 0.00 | 0.00 | 85 | 1018.7 |
| 20260506110029 | 56 | 173 | 0.0 | 4.3 | 0.00 | 0.00 | 0.00 | 85 | 1018.7 |
| 20260506105512 | 56 | 0 | 0.0 | 4.3 | 0.00 | 0.01 | 0.00 | 85 | 1018.6 |
| 20260506105016 | 56 | 0 | 0.0 | 1.7 | 0.00 | 0.01 | 0.00 | 85 | 1018.6 |
| 20260506104529 | 56 | 0 | 0.0 | 1.7 | 0.00 | 0.01 | 0.00 | 85 | 1018.6 |
| 20260506104016 | 56 | 0 | 0.0 | 0.9 | 0.00 | 0.01 | 0.00 | 85 | 1018.5 |
| 20260506103514 | 56 | 0 | 0.0 | 0.0 | 0.00 | 0.01 | 0.00 | 85 | 1018.6 |
| 20260506103029 | 56 | 0 | 0.0 | 0.9 | 0.00 | 0.01 | 0.00 | 85 | 1018.6 |
| 20260506102514 | 56 | 0 | 0.0 | 0.9 | 0.00 | 0.01 | 0.00 | 85 | 1018.5 |
| 20260506102010 | 57 | 0 | 0.0 | 3.5 | 0.00 | 0.01 | 0.00 | 85 | 1018.3 |
| 20260506101530 | 57 | 0 | 0.0 | 3.5 | 0.00 | 0.01 | 0.00 | 85 | 1018.3 |
| 20260506101014 | 57 | 187 | 0.9 | 3.5 | 0.00 | 0.01 | 0.00 | 85 | 1018.2 |
| 20260506100517 | 57 | 178 | 1.7 | 3.5 | 0.00 | 0.01 | 0.00 | 85 | 1018.3 |
| 20260506100027 | 57 | 193 | 1.7 | 3.5 | 0.00 | 0.01 | 0.00 | 85 | 1018.3 |
| 20260506095512 | 57 | 177 | 0.0 | 2.6 | 0.00 | 0.01 | 0.00 | 85 | 1018.2 |
| 20260506095012 | 57 | 0 | 0.9 | 2.6 | 0.00 | 0.01 | 0.00 | 85 | 1018.4 |
| 20260506094530 | 57 | 216 | 0.0 | 2.6 | 0.00 | 0.01 | 0.00 | 84 | 1018.2 |
| 20260506094012 | 57 | 0 | 0.0 | 2.6 | 0.00 | 0.01 | 0.00 | 84 | 1018.3 |
| 20260506093514 | 57 | 216 | 0.9 | 2.6 | 0.00 | 0.01 | 0.00 | 84 | 1018.3 |
| 20260506093037 | 57 | 0 | 0.0 | 2.6 | 0.00 | 0.01 | 0.00 | 84 | 1018.3 |
| 20260506092513 | 57 | 0 | 0.0 | 2.6 | 0.00 | 0.01 | 0.00 | 84 | 1018.3 |
| 20260506092016 | 57 | 202 | 0.0 | 3.5 | 0.00 | 0.01 | 0.00 | 84 | 1018.3 |
| 20260506091531 | 57 | 202 | 1.7 | 3.5 | 0.00 | 0.01 | 0.00 | 84 | 1018.3 |
| 20260506091014 | 57 | 196 | 0.9 | 3.5 | 0.00 | 0.01 | 0.00 | 84 | 1018.3 |
| 20260506090514 | 57 | 192 | 1.7 | 3.5 | 0.00 | 0.01 | 0.00 | 84 | 1018.2 |
| 20260506090028 | 57 | 218 | 0.9 | 3.5 | 0.00 | 0.01 | 0.00 | 84 | 1018.2 |
| 20260506085513 | 57 | 217 | 1.7 | 3.5 | 0.00 | 0.01 | 0.00 | 83 | 1018.3 |
| 20260506085014 | 57 | 196 | 1.7 | 3.5 | 0.00 | 0.01 | 0.00 | 83 | 1018.3 |
| 20260506084534 | 57 | 215 | 1.7 | 3.5 | 0.00 | 0.01 | 0.00 | 84 | 1018.2 |
| 20260506084012 | 57 | 194 | 1.7 | 3.5 | 0.00 | 0.01 | 0.00 | 84 | 1018.3 |
| 20260506083513 | 57 | 207 | 0.9 | 3.5 | 0.00 | 0.01 | 0.00 | 84 | 1018.4 |
| 20260506083031 | 57 | 194 | 0.9 | 2.6 | 0.00 | 0.01 | 0.00 | 84 | 1018.4 |
| 20260506082513 | 57 | 198 | 0.9 | 2.6 | 0.00 | 0.01 | 0.00 | 84 | 1018.5 |
| 20260506082012 | 57 | 242 | 1.7 | 2.6 | 0.00 | 0.01 | 0.00 | 85 | 1018.4 |
| 20260506081528 | 57 | 187 | 0.0 | 1.7 | 0.00 | 0.01 | 0.00 | 85 | 1018.4 |
| 20260506081012 | 57 | 0 | 0.0 | 1.7 | 0.00 | 0.01 | 0.00 | 85 | 1018.4 |
| 20260506080511 | 57 | 0 | 0.0 | 0.9 | 0.00 | 0.01 | 0.00 | 85 | 1018.4 |
| 20260506073512 | 57 | 0 | 0.0 | 0.0 | 0.00 | 0.04 | 0.00 | 85 | 1018.1 |
| 20260506073029 | 57 | 0 | 0.0 | 0.0 | 0.00 | 0.04 | 0.00 | 84 | 1018.1 |
| 20260506072512 | 57 | 0 | 0.0 | 0.9 | 0.00 | 0.04 | 0.00 | 84 | 1018.0 |
| 20260506072014 | 57 | 0 | 0.0 | 1.7 | 0.00 | 0.04 | 0.00 | 84 | 1017.9 |
| 20260506071530 | 57 | 0 | 0.0 | 2.6 | 0.00 | 0.04 | 0.00 | 84 | 1018.0 |
| 20260506071013 | 57 | 259 | 0.0 | 2.6 | 0.00 | 0.04 | 0.00 | 84 | 1017.8 |
| 20260506070514 | 57 | 259 | 0.0 | 2.6 | 0.00 | 0.04 | 0.00 | 84 | 1017.8 |
| 20260506062512 | 57 | 269 | 2.6 | 5.2 | 0.00 | 0.07 | 0.04 | 84 | 1017.4 |
| 20260506062013 | 57 | 273 | 0.9 | 5.2 | 0.00 | 0.07 | 0.04 | 84 | 1017.4 |
| 20260506061528 | 57 | 288 | 0.9 | 5.2 | 0.00 | 0.07 | 0.04 | 84 | 1017.4 |
| 20260506061012 | 57 | 268 | 0.9 | 3.5 | 0.00 | 0.07 | 0.04 | 84 | 1017.3 |
| 20260506060513 | 57 | 306 | 1.7 | 5.2 | 0.00 | 0.07 | 0.04 | 84 | 1017.4 |
| 20260506051011 | 58 | 259 | 2.6 | 6.1 | 0.00 | 0.10 | 0.04 | 82 | 1016.8 |
| 20260506050512 | 58 | 246 | 3.5 | 6.1 | 0.00 | 0.10 | 0.04 | 81 | 1016.9 |
| 20260506045013 | 59 | 234 | 2.6 | 8.7 | 0.00 | 0.15 | 0.04 | 80 | 1016.8 |
| 20260506044538 | 59 | 262 | 4.3 | 8.7 | 0.00 | 0.15 | 0.04 | 80 | 1016.7 |
| 20260506044012 | 59 | 244 | 3.5 | 8.7 | 0.00 | 0.15 | 0.04 | 80 | 1016.6 |
| 20260506043513 | 60 | 262 | 5.2 | 8.7 | 0.00 | 0.15 | 0.04 | 79 | 1016.4 |
| 20260506043027 | 60 | 261 | 5.2 | 8.7 | 0.00 | 0.15 | 0.04 | 79 | 1016.4 |
| 20260506042512 | 61 | 252 | 5.2 | 8.7 | 0.00 | 0.15 | 0.04 | 80 | 1016.3 |
| 20260506042014 | 61 | 242 | 5.2 | 7.8 | 0.00 | 0.15 | 0.04 | 81 | 1016.2 |
| 20260506041541 | 61 | 237 | 2.6 | 5.2 | 0.00 | 0.15 | 0.04 | 81 | 1016.2 |
| 20260506041017 | 62 | 231 | 1.7 | 2.6 | 0.00 | 0.15 | 0.04 | 80 | 1016.2 |
| 20260506040516 | 62 | 219 | 0.9 | 2.6 | 0.00 | 0.15 | 0.04 | 80 | 1016.2 |
| 20260506040032 | 62 | 226 | 0.9 | 2.6 | 0.00 | 0.15 | 0.04 | 80 | 1016.2 |
| 20260506035512 | 62 | 226 | 0.9 | 1.7 | 0.00 | 0.23 | 0.04 | 80 | 1016.2 |
| 20260506035013 | 62 | 226 | 0.0 | 1.7 | 0.00 | 0.23 | 0.04 | 80 | 1016.1 |
| 20260506034531 | 62 | 226 | 0.0 | 2.6 | 0.00 | 0.23 | 0.04 | 80 | 1016.0 |
| 20260506034015 | 62 | 226 | 0.9 | 2.6 | 0.00 | 0.23 | 0.04 | 80 | 1016.0 |
| 20260506033513 | 62 | 0 | 0.0 | 2.6 | 0.00 | 0.23 | 0.04 | 80 | 1015.9 |
| 20260506033028 | 62 | 235 | 0.9 | 3.5 | 0.00 | 0.23 | 0.04 | 79 | 1015.9 |
| 20260506032514 | 62 | 203 | 0.9 | 4.3 | 0.00 | 0.23 | 0.04 | 79 | 1015.7 |
| 20260506032014 | 62 | 208 | 1.7 | 4.3 | 0.00 | 0.23 | 0.04 | 80 | 1015.6 |
| 20260506031530 | 62 | 225 | 2.6 | 4.3 | 0.00 | 0.23 | 0.04 | 79 | 1015.6 |
| 20260506031014 | 62 | 225 | 1.7 | 3.5 | 0.00 | 0.23 | 0.04 | 78 | 1015.6 |
| 20260506030515 | 62 | 209 | 1.7 | 4.3 | 0.00 | 0.23 | 0.04 | 78 | 1015.6 |
| 20260506030030 | 62 | 215 | 1.7 | 4.3 | 0.00 | 0.23 | 0.04 | 78 | 1015.5 |
| 20260506025513 | 62 | 208 | 1.7 | 5.2 | 0.00 | 0.23 | 0.04 | 78 | 1015.4 |
| 20260506025014 | 62 | 204 | 2.6 | 5.2 | 0.00 | 0.23 | 0.04 | 78 | 1015.4 |
| 20260506024528 | 63 | 207 | 3.5 | 6.1 | 0.00 | 0.23 | 0.04 | 78 | 1015.3 |
| 20260506024019 | 63 | 198 | 3.5 | 7.0 | 0.00 | 0.23 | 0.04 | 77 | 1015.1 |
| 20260506023514 | 63 | 228 | 4.3 | 7.8 | 0.00 | 0.23 | 0.04 | 76 | 1015.0 |
| 20260506023030 | 63 | 203 | 4.3 | 7.8 | 0.00 | 0.23 | 0.04 | 76 | 1014.9 |
| 20260506022513 | 63 | 209 | 3.5 | 5.2 | 0.00 | 0.23 | 0.04 | 76 | 1014.8 |
| 20260506022015 | 63 | 209 | 3.5 | 5.2 | 0.00 | 0.23 | 0.04 | 76 | 1014.9 |
| 20260506021528 | 63 | 193 | 1.7 | 5.2 | 0.00 | 0.23 | 0.04 | 75 | 1015.0 |
| 20260506021018 | 63 | 200 | 3.5 | 6.1 | 0.00 | 0.23 | 0.04 | 74 | 1015.0 |
| 20260506020517 | 64 | 200 | 3.5 | 6.1 | 0.00 | 0.23 | 0.04 | 74 | 1015.0 |
| 20260506020028 | 64 | 186 | 2.6 | 6.1 | 0.00 | 0.23 | 0.04 | 74 | 1015.0 |
| 20260506015513 | 64 | 229 | 3.5 | 7.0 | 0.00 | 0.24 | 0.04 | 74 | 1015.0 |
| 20260506015014 | 64 | 220 | 3.5 | 7.8 | 0.00 | 0.24 | 0.04 | 73 | 1014.9 |
| 20260506014530 | 65 | 224 | 4.3 | 7.8 | 0.00 | 0.24 | 0.04 | 72 | 1014.9 |
| 20260506014014 | 65 | 184 | 2.6 | 6.1 | 0.00 | 0.24 | 0.04 | 72 | 1014.8 |
| 20260506013512 | 65 | 184 | 2.6 | 5.2 | 0.00 | 0.24 | 0.04 | 73 | 1014.8 |
| 20260506013027 | 65 | 0 | 0.0 | 7.0 | 0.00 | 0.24 | 0.04 | 73 | 1014.8 |
| 20260506012512 | 65 | 0 | 0.9 | 7.0 | 0.00 | 0.24 | 0.04 | 71 | 1014.9 |
| 20260506012015 | 65 | 210 | 1.7 | 7.0 | 0.00 | 0.24 | 0.04 | 70 | 1014.8 |
| 20260506011539 | 66 | 192 | 3.5 | 7.0 | 0.00 | 0.24 | 0.04 | 70 | 1014.8 |
| 20260506011017 | 66 | 183 | 2.6 | 7.0 | 0.00 | 0.24 | 0.04 | 71 | 1014.6 |
| 20260506010514 | 65 | 213 | 1.7 | 5.2 | 0.00 | 0.24 | 0.04 | 72 | 1014.6 |
| 20260506010029 | 65 | 188 | 2.6 | 5.2 | 0.00 | 0.24 | 0.04 | 72 | 1014.6 |
| 20260506005515 | 65 | 203 | 2.6 | 5.2 | 0.00 | 0.25 | 0.04 | 75 | 1014.6 |
| 20260506005012 | 65 | 184 | 3.5 | 5.2 | 0.00 | 0.25 | 0.04 | 73 | 1014.6 |
| 20260506004540 | 65 | 255 | 2.6 | 5.2 | 0.00 | 0.25 | 0.04 | 73 | 1014.6 |
| 20260506004017 | 65 | 219 | 2.6 | 6.1 | 0.00 | 0.25 | 0.04 | 74 | 1014.6 |
| 20260506003514 | 64 | 254 | 2.6 | 6.1 | 0.00 | 0.25 | 0.04 | 74 | 1014.6 |
| 20260506003031 | 65 | 236 | 2.6 | 7.0 | 0.00 | 0.25 | 0.04 | 72 | 1014.6 |
| 20260506002516 | 65 | 215 | 3.5 | 7.0 | 0.00 | 0.25 | 0.04 | 71 | 1014.5 |
| 20260506002014 | 65 | 216 | 4.3 | 6.1 | 0.00 | 0.25 | 0.04 | 71 | 1014.5 |
| 20260506001531 | 65 | 229 | 3.5 | 7.0 | 0.00 | 0.25 | 0.04 | 71 | 1014.6 |
| 20260506001014 | 65 | 215 | 3.5 | 7.0 | 0.00 | 0.25 | 0.04 | 70 | 1014.5 |
| 20260506000516 | 65 | 229 | 4.3 | 7.0 | 0.00 | 0.25 | 0.04 | 71 | 1014.5 |
| 20260506000028 | 65 | 226 | 4.3 | 7.8 | 0.00 | 0.25 | 0.04 | 72 | 1014.4 |
| 20260505235514 | 66 | 239 | 5.2 | 8.7 | 0.00 | 0.25 | 0.04 | 71 | 1014.5 |
| 20260505235013 | 66 | 235 | 5.2 | 8.7 | 0.00 | 0.25 | 0.04 | 72 | 1014.4 |
| 20260505234531 | 66 | 246 | 4.3 | 9.6 | 0.00 | 0.25 | 0.04 | 71 | 1014.4 |
| 20260505234017 | 66 | 236 | 4.3 | 10.4 | 0.00 | 0.25 | 0.04 | 69 | 1014.4 |
| 20260505233512 | 67 | 216 | 4.3 | 10.4 | 0.00 | 0.25 | 0.04 | 69 | 1014.3 |
| 20260505233033 | 67 | 192 | 3.5 | 8.7 | 0.00 | 0.25 | 0.04 | 68 | 1014.3 |
| 20260505232517 | 68 | 189 | 5.2 | 8.7 | 0.00 | 0.25 | 0.04 | 69 | 1014.4 |
| 20260505232014 | 68 | 238 | 6.1 | 8.7 | 0.00 | 0.25 | 0.04 | 69 | 1014.4 |
| 20260505231538 | 66 | 238 | 3.5 | 7.0 | 0.00 | 0.25 | 0.04 | 69 | 1014.3 |
| 20260505231012 | 65 | 217 | 3.5 | 7.0 | 0.00 | 0.25 | 0.04 | 70 | 1014.3 |
| 20260505230515 | 65 | 188 | 2.6 | 6.1 | 0.00 | 0.25 | 0.04 | 73 | 1014.4 |
| 20260505230031 | 65 | 0 | 0.0 | 5.2 | 0.00 | 0.25 | 0.04 | 70 | 1014.4 |
| 20260505225512 | 65 | 293 | 2.6 | 5.2 | 0.00 | 0.25 | 0.04 | 72 | 1014.5 |
| 20260505225011 | 65 | 226 | 3.5 | 6.1 | 0.00 | 0.25 | 0.04 | 68 | 1014.5 |
| 20260505224528 | 66 | 0 | 0.9 | 6.1 | 0.00 | 0.25 | 0.04 | 66 | 1014.5 |
| 20260505224013 | 68 | 208 | 1.7 | 5.2 | 0.00 | 0.25 | 0.04 | 66 | 1014.5 |
| 20260505223514 | 68 | 214 | 3.5 | 5.2 | 0.00 | 0.25 | 0.04 | 68 | 1014.5 |
| 20260505223027 | 67 | 179 | 1.7 | 5.2 | 0.00 | 0.25 | 0.04 | 67 | 1014.7 |
| 20260505222513 | 67 | 0 | 1.7 | 6.1 | 0.00 | 0.25 | 0.04 | 65 | 1014.7 |
| 20260505222016 | 67 | 153 | 0.9 | 6.1 | 0.00 | 0.25 | 0.04 | 65 | 1014.9 |
| 20260505221530 | 67 | 217 | 0.9 | 5.2 | 0.00 | 0.25 | 0.04 | 72 | 1015.0 |
| 20260505221011 | 66 | 155 | 2.6 | 5.2 | 0.00 | 0.25 | 0.04 | 69 | 1014.9 |
| 20260505220512 | 65 | 215 | 0.9 | 6.1 | 0.00 | 0.25 | 0.04 | 73 | 1015.0 |
| 20260505220044 | 66 | 219 | 0.9 | 6.1 | 0.00 | 0.25 | 0.04 | 72 | 1014.9 |
| 20260505215516 | 64 | 198 | 1.7 | 6.1 | 0.00 | 0.25 | 0.04 | 73 | 1015.0 |
| 20260505215012 | 63 | 244 | 3.5 | 7.0 | 0.00 | 0.25 | 0.04 | 76 | 1015.1 |
| 20260505214533 | 63 | 221 | 3.5 | 7.0 | 0.00 | 0.25 | 0.04 | 75 | 1015.1 |
| 20260505214014 | 64 | 236 | 3.5 | 7.8 | 0.00 | 0.25 | 0.04 | 77 | 1015.2 |
| 20260505213514 | 63 | 248 | 3.5 | 7.8 | 0.00 | 0.25 | 0.04 | 77 | 1015.1 |
| 20260505213032 | 62 | 242 | 3.5 | 7.8 | 0.00 | 0.25 | 0.04 | 78 | 1015.1 |
| 20260505212513 | 62 | 253 | 3.5 | 6.1 | 0.00 | 0.25 | 0.04 | 77 | 1015.1 |
| 20260505212014 | 62 | 229 | 2.6 | 7.8 | 0.00 | 0.25 | 0.04 | 77 | 1015.2 |
| 20260505211538 | 62 | 250 | 5.2 | 7.8 | 0.00 | 0.25 | 0.04 | 80 | 1015.2 |
| 20260505211013 | 62 | 234 | 5.2 | 9.6 | 0.00 | 0.25 | 0.04 | 78 | 1015.2 |
| 20260505210513 | 62 | 257 | 4.3 | 9.6 | 0.00 | 0.25 | 0.04 | 78 | 1015.2 |
| 20260505210033 | 63 | 258 | 6.1 | 9.6 | 0.00 | 0.25 | 0.04 | 78 | 1015.2 |
| 20260505205516 | 63 | 251 | 7.0 | 9.6 | 0.00 | 0.25 | 0.04 | 76 | 1015.2 |
| 20260505205012 | 64 | 251 | 6.1 | 9.6 | 0.00 | 0.25 | 0.04 | 74 | 1015.2 |
| 20260505204529 | 66 | 204 | 4.3 | 8.7 | 0.00 | 0.25 | 0.04 | 72 | 1015.2 |
| 20260505204012 | 65 | 234 | 3.5 | 7.8 | 0.00 | 0.25 | 0.04 | 71 | 1015.1 |
| 20260505203511 | 66 | 0 | 2.6 | 7.8 | 0.00 | 0.25 | 0.04 | 67 | 1015.2 |
| 20260505203033 | 66 | 180 | 2.6 | 7.0 | 0.00 | 0.25 | 0.04 | 71 | 1015.1 |
| 20260505202515 | 65 | 122 | 0.9 | 3.5 | 0.00 | 0.25 | 0.04 | 73 | 1015.1 |
| 20260505202012 | 63 | 89 | 0.9 | 5.2 | 0.00 | 0.25 | 0.04 | 80 | 1015.1 |
| 20260505201530 | 62 | 92 | 0.0 | 5.2 | 0.00 | 0.25 | 0.04 | 77 | 1015.2 |
| 20260505201013 | 62 | 96 | 2.6 | 5.2 | 0.00 | 0.25 | 0.04 | 73 | 1015.2 |
| 20260505200551 | 62 | 244 | 0.9 | 5.2 | 0.00 | 0.25 | 0.04 | 74 | 1015.2 |
| 20260505200030 | 62 | 27 | 1.7 | 5.2 | 0.00 | 0.25 | 0.04 | 75 | 1015.3 |
| 20260505195512 | 62 | 0 | 2.6 | 5.2 | 0.00 | 0.25 | 0.04 | 74 | 1015.3 |
| 20260505195013 | 62 | 0 | 0.0 | 5.2 | 0.00 | 0.25 | 0.04 | 74 | 1015.3 |
| 20260505194528 | 62 | 177 | 2.6 | 5.2 | 0.00 | 0.25 | 0.04 | 77 | 1015.3 |
| 20260505194018 | 62 | 0 | 1.7 | 4.3 | 0.00 | 0.25 | 0.04 | 79 | 1015.3 |
| 20260505193512 | 61 | 237 | 0.9 | 4.3 | 0.00 | 0.25 | 0.04 | 75 | 1015.3 |
| 20260505193035 | 61 | 0 | 0.0 | 5.2 | 0.00 | 0.25 | 0.04 | 74 | 1015.3 |
| 20260505192511 | 61 | 0 | 2.6 | 5.2 | 0.00 | 0.25 | 0.04 | 77 | 1015.3 |
| 20260505192014 | 60 | 0 | 0.9 | 4.3 | 0.00 | 0.25 | 0.04 | 83 | 1015.3 |
| 20260505191531 | 60 | 0 | 0.0 | 6.1 | 0.00 | 0.25 | 0.04 | 77 | 1015.3 |
| 20260505191013 | 60 | 248 | 1.7 | 6.1 | 0.00 | 0.25 | 0.04 | 80 | 1015.3 |
| 20260505190517 | 60 | 244 | 2.6 | 6.1 | 0.00 | 0.25 | 0.04 | 81 | 1015.4 |
| 20260505190029 | 61 | 273 | 2.6 | 7.0 | 0.00 | 0.25 | 0.04 | 78 | 1015.4 |
| 20260505185518 | 61 | 203 | 1.7 | 7.0 | 0.00 | 0.25 | 0.04 | 82 | 1015.4 |
| 20260505185015 | 61 | 279 | 3.5 | 7.0 | 0.00 | 0.25 | 0.04 | 78 | 1015.4 |
| 20260505184531 | 61 | 210 | 3.5 | 7.0 | 0.00 | 0.25 | 0.04 | 80 | 1015.4 |
| 20260505184013 | 61 | 194 | 3.5 | 6.1 | 0.00 | 0.25 | 0.04 | 80 | 1015.3 |
| 20260505183514 | 60 | 219 | 2.6 | 6.1 | 0.00 | 0.25 | 0.04 | 81 | 1015.3 |
| 20260505183038 | 59 | 195 | 2.6 | 6.1 | 0.00 | 0.25 | 0.04 | 83 | 1015.3 |
| 20260505182512 | 59 | 213 | 3.5 | 7.8 | 0.00 | 0.25 | 0.04 | 83 | 1015.3 |
| 20260505182016 | 59 | 223 | 3.5 | 7.8 | 0.00 | 0.25 | 0.04 | 84 | 1015.3 |
| 20260505181531 | 58 | 247 | 0.0 | 5.2 | 0.00 | 0.25 | 0.04 | 85 | 1015.3 |
| 20260505181018 | 58 | 223 | 1.7 | 6.1 | 0.00 | 0.25 | 0.04 | 83 | 1015.2 |
| 20260505180511 | 58 | 207 | 2.6 | 7.0 | 0.00 | 0.25 | 0.04 | 82 | 1015.2 |
| 20260505180030 | 58 | 233 | 2.6 | 7.0 | 0.00 | 0.25 | 0.04 | 84 | 1015.1 |
| 20260505175514 | 59 | 226 | 3.5 | 6.1 | 0.00 | 0.25 | 0.04 | 85 | 1015.0 |
| 20260505175013 | 58 | 263 | 2.6 | 6.1 | 0.00 | 0.25 | 0.04 | 85 | 1015.0 |
| 20260505174529 | 59 | 263 | 2.6 | 6.1 | 0.00 | 0.25 | 0.04 | 84 | 1015.0 |
| 20260505174014 | 59 | 219 | 1.7 | 6.1 | 0.00 | 0.25 | 0.04 | 84 | 1015.0 |
| 20260505173513 | 58 | 0 | 2.6 | 6.1 | 0.00 | 0.25 | 0.04 | 87 | 1014.9 |
| 20260505173030 | 58 | 219 | 1.7 | 6.1 | 0.00 | 0.25 | 0.04 | 84 | 1014.9 |
| 20260505172516 | 58 | 237 | 2.6 | 5.2 | 0.00 | 0.25 | 0.04 | 86 | 1015.0 |
| 20260505172012 | 58 | 184 | 1.7 | 5.2 | 0.00 | 0.25 | 0.04 | 88 | 1015.0 |
| 20260505171530 | 57 | 236 | 2.6 | 6.1 | 0.00 | 0.25 | 0.04 | 89 | 1015.0 |
| 20260505171014 | 57 | 146 | 0.9 | 6.1 | 0.00 | 0.25 | 0.04 | 89 | 1014.9 |
| 20260505170514 | 57 | 180 | 2.6 | 5.2 | 0.00 | 0.25 | 0.04 | 90 | 1014.9 |
| 20260505170030 | 57 | 207 | 2.6 | 6.1 | 0.00 | 0.25 | 0.04 | 90 | 1015.0 |
| 20260505165512 | 56 | 209 | 2.6 | 6.1 | 0.00 | 0.25 | 0.04 | 91 | 1015.0 |
| 20260505165014 | 56 | 199 | 2.6 | 6.1 | 0.00 | 0.25 | 0.04 | 91 | 1015.0 |
| 20260505164541 | 56 | 198 | 4.3 | 6.1 | 0.00 | 0.25 | 0.04 | 92 | 1015.0 |
| 20260505164013 | 56 | 213 | 3.5 | 6.1 | 0.00 | 0.25 | 0.04 | 92 | 1015.0 |
| 20260505163513 | 55 | 216 | 3.5 | 5.2 | 0.00 | 0.25 | 0.04 | 93 | 1014.9 |
| 20260505163029 | 55 | 169 | 2.6 | 5.2 | 0.00 | 0.25 | 0.04 | 93 | 1015.0 |
| 20260505162511 | 55 | 159 | 1.7 | 5.2 | 0.00 | 0.25 | 0.04 | 93 | 1015.0 |
| 20260505162014 | 54 | 162 | 1.7 | 5.2 | 0.00 | 0.25 | 0.04 | 93 | 1015.0 |
| 20260505161528 | 54 | 207 | 1.7 | 5.2 | 0.00 | 0.25 | 0.04 | 93 | 1014.9 |
| 20260505161013 | 54 | 175 | 2.6 | 6.1 | 0.00 | 0.25 | 0.04 | 93 | 1014.9 |
| 20260505160514 | 54 | 171 | 2.6 | 6.1 | 0.00 | 0.25 | 0.04 | 93 | 1014.9 |